Flag for Germany Weather past 2 weeks in Bad Homburg, Hesse, Germany

Now
63 °F

Overcast.


Feels Like: 63 °F
Forecast: 56 / 79 °F
Wind: 5 mph from Northeast

Location: Frankfurt / M-Flughafen

Current Time: Aug 1, 2015 at 1:33:01 AM

Latest Report: Aug 1, 2015 at 1:00 AM


Visibility: 37 mi

Pressure: 29.98 "Hg

Humidity: 46%

Dew point: 41 °F

Location of Bad HomburgLocation

Historic Weather in Bad Homburg — Graph

°F

Bad Homburg temperature yesterday

Maximum temperature yesterday: 73 °F (at 6:00 PM)
Minimum temperature yesterday: 48 °F (at 7:00 AM)
Average temperature yesterday: 63 °F

Past Weeks' High & Low Weather Summary

 TemperatureHumidityPressure
High95 °F (Jul 17, 6:00 PM)98% (Jul 18, 4:00 AM)30.14 "Hg (Jul 18, 4:00 AM)
Low47 °F (Jul 30, 4:00 AM)23% (Jul 17, 4:00 PM)29.63 "Hg (Jul 27, 8:00 AM)
Average70 °F59%29.89 "Hg
* Reported Midnight between Jul 16 and Jul 17 — Midnight between Jul 31 and Aug 1, Bad Homburg, Weather by CustomWeather, © 2015

Note: Actual official high and low records may vary slightly from our data, if they occured in-between our weather recording intervals... More about our weather records

Advertising

Bad Homburg weather history for previous 24 hours

 ConditionsComfort  
Time TempWeatherWind HumidityBarometerVisibility
12:00 AM
Sat, Aug 1
63 °FOvercast.3 mph45%29.99 "Hg37 mi
11:00 PM
Fri, Jul 31
64 °FPassing clouds.5 mph43%29.99 "Hg37 mi
10:00 PM67 °FPassing clouds.5 mph38%29.98 "Hg37 mi
9:00 PM69 °FPartly sunny.5 mph34%29.98 "Hg37 mi
8:00 PM71 °FScattered clouds.5 mph31%29.98 "Hg37 mi
7:00 PM73 °FScattered clouds.3 mph30%29.99 "Hg37 mi
6:00 PM73 °FScattered clouds.6 mph29%30.01 "Hg37 mi
4:00 PM71 °FPartly sunny.3 mph29%30.04 "Hg31 mi
3:00 PM70 °FPartly sunny.6 mph33%30.05 "Hg31 mi
2:00 PM70 °FScattered clouds.2 mph34%30.08 "Hg31 mi
1:00 PM67 °FScattered clouds.5 mph40%30.10 "Hg28 mi
12:00 PM66 °FScattered clouds.3 mph46%30.12 "Hg28 mi
11:00 AM63 °FPassing clouds.5 mph51%30.12 "Hg25 mi
10:00 AM61 °FPassing clouds.3 mph57%30.13 "Hg22 mi
9:00 AM58 °FPassing clouds.5 mph70%30.14 "Hg16 mi
8:00 AM55 °FPassing clouds.2 mph82%30.14 "Hg14 mi
7:00 AM48 °FPassing clouds.1 mph97%30.13 "Hg16 mi
4:00 AM49 °FPassing clouds.1 mph96%30.11 "Hg19 mi
3:00 AM51 °FPassing clouds.2 mph92%30.11 "Hg25 mi
2:00 AM54 °FPassing clouds.1 mph81%30.10 "Hg34 mi
1:00 AM55 °FPassing clouds.3 mph79%30.10 "Hg43 mi
Weather by CustomWeather, © 2015

See weather overviewHow to use our weather pages